View from above orbital plane
|
View from above satellite
|
Ground track
|
The orbit data is extracted from the following two-line orbital elements,
1 27844U 03031E 21018.77473998 .00000037 00000-0 36446-4 0 9995
2 27844 98.6817 29.2481 0010418 147.3255 212.8570 14.22282705910742
Epoch (UTC): | 18 January 2021 18:35:37 |
Eccentricity: | 0.0010418 |
inclination: | 98.6817° |
perigee height: | 810 km |
apogee height: | 825 km |
right ascension of ascending node: | 29.2481° |
argument of perigee: | 147.3255° |
revolutions per day: | 14.22282705 |
mean anomaly at epoch: | 212.8570° |
orbit number at epoch: | 91074 |
The dashed part of the orbit path shows where the satellite is in the earth's shadow,
|
|